Starlink 6095

operational
NORAD ID: 56101 Int'l Des: 2023-046 Owner: SPXS Country: US Constellation: starlink
LEOCIRCULAR

About Starlink 6095

Description loading...

Live Position

Loading 3D Globe...

Upcoming Passes

Altitude History

Altitude vs Time

uPlot chart will show altitude changes over time

Two-Line Element Set

1 56101U 23046J 26048.03106703 -.00001064 00000-0 -63720-4 0 9993
2 56101 43.0045 271.2700 0001661 255.1004 104.9654 15.02526650158950
Epoch: Feb 17, 2026 • Age: 24 hours

Current Status

Altitude 564.6 km
Velocity 7.58 km/s
Sub-Earth Point -24.53°S, 81.08°E
Launch Date Mar 29, 2023
Age 2.8 years
Type internet

Technical Details

Classification Payload
Mass 305.00 kg
Dry Mass 290.00 kg
Total Mass 305.00 kg
Length 0.20 m
Diameter 2.80 m
Span 9.00 m
Shape Box + pan
Manufacturer SPXS
Bus Type Starlink
Phase Status In Orbit
Owner/State SPXS/US

Large Constellations

Loading constellations...